TimeEST,TemperatureF,Dew PointF,Humidity,Sea Level PressureIn,VisibilityMPH,Wind Direction,Wind SpeedMPH,Gust SpeedMPH,PrecipitationIn,Events,Conditions,WindDirDegrees,DateUTC
12:32 AM,73.4,71.6,94,30.05,10.0,ESE,9.2,-,N/A,,Mostly Cloudy,120,2013-02-23 05:32:00
12:53 AM,73.9,71.1,91,30.04,10.0,SE,8.1,-,N/A,,Mostly Cloudy,130,2013-02-23 05:53:00
1:24 AM,73.4,71.6,94,30.03,10.0,SE,9.2,-,N/A,,Scattered Clouds,130,2013-02-23 06:24:00
1:53 AM,73.9,71.1,91,30.03,10.0,SE,8.1,-,N/A,,Partly Cloudy,140,2013-02-23 06:53:00
2:53 AM,73.9,69.1,85,30.01,10.0,SE,9.2,-,N/A,,Clear,140,2013-02-23 07:53:00
3:53 AM,73.0,69.1,87,30.00,10.0,SE,9.2,-,N/A,,Clear,140,2013-02-23 08:53:00
4:53 AM,73.0,68.0,84,30.00,10.0,SE,8.1,-,N/A,,Clear,140,2013-02-23 09:53:00
5:53 AM,73.0,68.0,84,30.00,10.0,SSE,8.1,-,N/A,,Clear,150,2013-02-23 10:53:00
6:53 AM,73.0,69.1,87,30.01,10.0,SE,4.6,-,N/A,,Clear,140,2013-02-23 11:53:00
7:53 AM,75.0,69.1,82,30.02,10.0,SSE,6.9,-,N/A,,Clear,150,2013-02-23 12:53:00
8:53 AM,77.0,70.0,79,30.03,10.0,South,9.2,18.4,N/A,,Scattered Clouds,170,2013-02-23 13:53:00
9:53 AM,80.1,69.1,69,30.04,10.0,SSE,10.4,-,N/A,,Partly Cloudy,160,2013-02-23 14:53:00
10:53 AM,81.0,69.1,67,30.04,10.0,South,10.4,17.3,N/A,,Mostly Cloudy,180,2013-02-23 15:53:00
11:00 AM,82.4,69.8,66,30.04,10.0,SSE,12.7,17.3,N/A,,Mostly Cloudy,150,2013-02-23 16:00:00
11:53 AM,82.9,69.1,63,30.02,10.0,South,12.7,-,N/A,,Scattered Clouds,170,2013-02-23 16:53:00
12:53 PM,82.0,69.1,65,29.99,10.0,South,10.4,19.6,N/A,,Mostly Cloudy,170,2013-02-23 17:53:00
1:53 PM,84.0,70.0,63,29.97,10.0,SSW,11.5,18.4,0.00,,Mostly Cloudy,200,2013-02-23 18:53:00
2:53 PM,82.9,68.0,60,29.96,10.0,South,10.4,17.3,N/A,,Scattered Clouds,190,2013-02-23 19:53:00
3:53 PM,82.0,69.1,65,29.94,10.0,South,10.4,-,N/A,,Partly Cloudy,170,2013-02-23 20:53:00
4:53 PM,81.0,69.1,67,29.94,10.0,South,10.4,-,N/A,,Partly Cloudy,190,2013-02-23 21:53:00
5:53 PM,79.0,70.0,74,29.95,10.0,SSW,8.1,17.3,N/A,,Partly Cloudy,200,2013-02-23 22:53:00
6:53 PM,77.0,71.1,82,29.96,10.0,South,6.9,-,N/A,,Clear,180,2013-02-23 23:53:00
7:53 PM,75.0,72.0,90,29.97,10.0,South,3.5,-,N/A,,Clear,180,2013-02-24 00:53:00
8:53 PM,73.9,71.1,91,29.98,10.0,SSW,3.5,-,N/A,,Clear,200,2013-02-24 01:53:00
9:53 PM,73.0,71.1,93,29.99,10.0,South,3.5,-,N/A,,Partly Cloudy,180,2013-02-24 02:53:00
10:53 PM,73.0,71.1,93,29.99,10.0,Calm,Calm,-,N/A,,Clear,0,2013-02-24 03:53:00
11:53 PM,72.0,71.1,97,29.99,10.0,Calm,Calm,-,N/A,,Clear,0,2013-02-24 04:53:00